Location: Copper Mountain Observatory
(34.1350°N, 116.3120°W)
Time: 16:05:03
(UTC-08:00)

Daily predictions for brighter satellites

Satellite Brightness Start Highest point End
(mag) Time Altitude Azimuth Time Altitude Azimuth Time Altitude Azimuth
SeaSat 1 2.8 17:24:35 10° SSE 17:29:30 75° WSW 17:34:27 10° NNW
Cosmos 2341 Rocket 4.5 17:27:09 10° NNW 17:33:23 69° W 17:39:39 10° S
Cosmos 1346 Rocket 3.9 17:31:02 10° NNE 17:34:11 23° ENE 17:37:18 10° SE
Cosmos 2151 4.2 17:32:28 10° SE 17:35:42 22° E 17:39:00 10° NE
Cosmos 1315 Rocket 2.7 17:31:55 10° S 17:35:50 85° E 17:39:45 10° N
TSX-5 4.3 17:33:02 10° SW 17:36:04 47° WNW 17:39:22 10° NNE
COSMOS 2406 3.6 17:32:01 10° S 17:37:24 44° ESE 17:42:47 10° NE
Cosmos 1455 3.8 17:36:38 10° NE 17:38:58 15° ENE 17:41:18 10° ESE
CZ-4C R/B 3.8 17:38:49 10° SE 17:40:45 12° ESE 17:42:44 10° E
Cosmos 1408 Rocket 3.5 17:39:19 10° S 17:43:35 69° E 17:47:51 10° NNE
OAO 3 Rocket 3.1 17:39:38 10° W 17:44:19 89° N 17:49:04 10° E
Cosmos 2098 Rocket 4.4 17:41:32 10° NNE 17:46:56 40° E 17:53:21 10° SSE
CZ-2C R/B 4.1 17:43:16 10° N 17:47:56 68° WNW 17:52:29 10° SSW
NOSS 3-4 (A) 4.0 17:41:11 10° NNW 17:48:07 52° NE 17:55:31 10° SE
NOSS 3-4 (C) 4.0 17:41:17 10° NNW 17:48:14 51° NE 17:55:37 10° SE
Cosmos 1626 2.0 17:45:05 10° S 17:48:45 74° E 17:52:28 10° N
SEDSat Delta rocket 4.3 17:44:32 10° WSW 17:51:16 66° S 17:57:13 12° E
Cosmos 1500 Rocket 4.2 17:53:11 10° SSE 17:57:11 33° E 18:01:12 10° NNE
COSMO-SKYMED 1 2.8 17:54:38 10° N 17:58:59 74° WNW 18:03:18 10° SSW
Tiangong 1 1.6 17:58:27 10° NW 18:00:39 28° NNE 18:01:23 23° NE
Cosmos 371 Rocket 3.5 17:56:20 10° S 18:00:56 49° ESE 18:05:36 10° NNE
EO 1 Del DPAF 3.2 17:58:12 10° NNE 18:02:01 69° ESE 18:05:49 10° S
Landsat 4 3.8 18:00:13 10° N 18:03:57 76° WNW 18:07:38 10° SSW
NOAA 12 4.0 18:01:14 10° SSE 18:06:23 66° ENE 18:11:36 10° N
H-2A R/B 4.1 18:03:35 10° WSW 18:06:47 33° S 18:18:14 10° ESE
SL-27 R/B 4.0 18:06:49 10° SE 18:08:51 18° ESE 18:08:51 18° ESE
ERS-2 2.5 18:06:51 10° SE 18:10:19 41° ENE 18:13:49 10° N
Cosmos 1743 Rocket 3.4 18:07:51 10° S 18:12:11 68° E 18:16:30 10° NNE
Cosmos 1656 Rocket 3.8 18:12:11 10° NNW 18:17:41 76° WSW 18:23:13 10° SSE
Cosmos 2228 Rocket 3.2 18:13:13 10° N 18:17:43 55° E 18:22:12 10° SSE
Cosmos 1703 3.5 18:14:00 10° S 18:17:57 75° W 18:21:56 10° N
Cosmos 1328 Rocket 3.4 18:14:32 10° N 18:18:54 79° E 18:23:12 10° S
SL-24 R/B - RUBIN 2 3.9 18:18:44 10° NW 18:23:05 65° WSW 18:27:20 10° SSE
Centaur D-1A AC-32 4.4 18:21:34 10° S 18:24:06 16° SE 18:25:56 14° ESE
TIMED 4.5 18:21:46 10° N 18:26:05 59° ENE 18:30:22 10° SSE
Thor Agena Rocket 3.9 18:24:47 15° NNE 18:28:51 43° E 18:33:46 10° S
Meteor 2-15 Rocket 4.3 18:33:26 10° S 18:39:30 68° E 18:45:34 10° NNE
Cosmos 1241 Rocket 4.3 18:34:49 10° NNW 18:41:04 75° ENE 18:47:19 10° SSE
ASTRO E2 3.0 18:37:36 10° W 18:41:31 57° S 18:42:23 45° SE
SPOT 3 Rocket 4.2 18:41:00 10° S 18:46:02 55° W 18:51:05 10° NNW
Cosmos 2058 4.2 18:43:22 10° SSW 18:47:19 41° W 18:51:18 10° N
Cosmos 1151 Rocket 3.2 18:45:56 10° N 18:50:20 72° W 18:54:40 10° S
Cosmos 304 Rocket 3.8 18:48:04 10° S 18:52:34 54° ESE 18:52:34 54° ESE
ALOS 4.2 18:48:48 10° SSW 18:52:53 30° W 18:56:59 10° NW
Cosmos 1821 Rocket 3.9 18:49:53 10° N 18:56:06 84° E 19:02:21 10° S
Cosmos 909 Rocket 3.9 18:50:12 10° NNW 18:56:46 74° ENE 19:01:14 20° SE
Cosmos 1535 Rocket 4.3 18:51:25 10° N 18:57:32 73° E 19:03:36 10° SSE
Cosmos 2082 Rocket 3.0 18:57:45 10° S 19:01:32 35° SE 19:01:32 35° SE
H-2A R/B 4.0 19:00:51 10° S 19:04:26 42° W 19:08:06 10° NNW
Lacrosse 5 1.8 19:05:11 10° SW 19:10:16 78° NW 19:10:43 71° N
Cosmos 468 Rocket 4.1 19:07:09 10° SSW 19:12:15 72° WNW 19:13:35 49° N
Cosmos 1455 4.4 19:11:27 10° NW 19:14:37 25° W 19:17:44 10° SW
Cosmos 1814 Rocket 4.2 19:11:26 10° S 19:15:48 59° SSE 19:15:48 59° SSE
Hubble Space Telescope 2.9 19:17:25 10° SW 19:19:17 20° SSW 19:19:17 20° SSW
Cosmos 1763 Rocket 4.2 19:21:45 10° SSW 19:25:08 42° SSW 19:25:08 42° SSW
Cosmos 1833 Rocket 3.3 19:22:01 10° SSW 19:25:54 46° S 19:25:54 46° S
OAO 3 Rocket 4.2 19:23:15 10° W 19:27:09 39° SW 19:27:09 39° SW
CZ-4C R/B 2.3 19:23:18 10° SW 19:28:17 64° WNW 19:28:17 64° WNW
ISS -0.8 19:25:33 10° WSW 19:26:12 15° WSW 19:26:12 15° WSW
Cosmos 1934 Rocket 4.2 19:25:36 10° NNW 19:31:54 68° W 19:38:12 10° S
SEDSat Delta rocket 4.1 19:31:15 10° W 19:37:21 64° SSW 19:37:21 64° SSW
